Location: Bakhuizen
(52.8696°N, 5.4575°E)
Time: 22:31:53
(UTC+00:00)

Terra - Pass Details

Date: 11 May 2021
Orbit: 701 x 703 km, 98.2° (Epoch: 24 June)

Event Time Altitude Azimuth Distance (km) Brightness Sun altitude
Exits shadow 23:11:39 - 241° (WSW) 2,452 4.4 -18.8°
Reaches altitude 10° 23:13:17 10° 258° (WSW) 2,176 4.3 -18.8°
Maximum altitude 23:14:47 11° 276° (W) 2,087 4.4 -18.9°
Drops below altitude 10° 23:16:17 10° 295° (WNW) 2,181 4.7 -18.9°
Sets 23:20:20 0° 329° (NNW) 3,107 6.3 -18.9°
